Find Starlink 32844

NORAD ID: 62820 Int'l Des: 2025-018 Owner: SPXS Country: US Constellation: starlink operational
LEOCIRCULAR

Current View

Loading 3D Globe...

About Starlink 32844

Starlink 32844 (NORAD 62820) is a starlink constellation satellite (v2 mini) launched Jan 24, 2025 by SPXS of US. It operates in LEO, CIRCULAR orbit with a mass of 730.00 kg.

About Starlink 32844

Description loading...

Upcoming Passes

Passes for default location (London). Set your location on the main map for personalized predictions.

Altitude History

Loading altitude history...

Two-Line Element Set

1 62820U 25018Q 26171.34774806 .00011282 00000-0 37454-3 0 9990
2 62820 53.1574 192.2028 0001285 91.1567 268.9581 15.31719019 78892
Epoch: Jun 20, 2026 • Age: 16 hours

Current Status

Altitude 471.7 km
Velocity 7.63 km/s
Sub-Earth Point 29.71°N, 65.31°E
Launch Date Jan 24, 2025
Age 1.4 years
Type internet

Technical Details

Classification Payload
Mass 730.00 kg
Dry Mass 700.00 kg
Total Mass 730.00 kg
Length 0.30 m
Diameter 4.10 m
Span 29.00 m
Shape Box + pan
Manufacturer SPXS
Bus Type Starlink V2M
Phase Status In Orbit
Owner/State SPXS/US

Most Searched